Time,TemperatureF,DewpointF,PressureIn,WindDirection,WindDirectionDegrees,WindSpeedMPH,WindSpeedGustMPH,Humidity,HourlyPrecipIn,Conditions,Clouds,dailyrainin,SolarRadiationWatts/m^2,SoftwareType,DateUTC
2013-05-18 00:02:00,46.1,45.0,30.05,NNE,23,1.0,5.0,94,0.00,,,0.00,0,weatherlink.com 1.10,2013-05-18 05:02:00,
2013-05-18 00:17:00,46.3,45.0,30.04,NNE,19,2.0,5.0,95,0.00,,,0.00,0,weatherlink.com 1.10,2013-05-18 05:17:00,
2013-05-18 00:32:00,46.5,45.0,30.04,NW,323,0.0,6.0,94,0.00,,,0.00,0,weatherlink.com 1.10,2013-05-18 05:32:00,
2013-05-18 00:47:00,46.8,45.0,30.04,NNW,328,2.0,4.0,94,0.00,,,0.00,0,weatherlink.com 1.10,2013-05-18 05:47:00,
2013-05-18 01:02:00,47.1,46.0,30.04,NE,52,2.0,5.0,94,0.00,,,0.00,0,weatherlink.com 1.10,2013-05-18 06:02:00,
2013-05-18 01:17:00,47.4,46.0,30.03,NE,49,0.0,3.0,93,0.00,,,0.00,0,weatherlink.com 1.10,2013-05-18 06:17:00,
2013-05-18 01:32:00,47.6,45.0,30.03,NE,51,0.0,2.0,92,0.00,,,0.00,0,weatherlink.com 1.10,2013-05-18 06:32:00,
2013-05-18 01:47:00,47.8,46.0,30.04,NE,51,1.0,2.0,92,0.00,,,0.00,0,weatherlink.com 1.10,2013-05-18 06:47:00,
2013-05-18 02:02:00,47.8,46.0,30.05,North,360,0.0,3.0,92,0.00,,,0.00,0,weatherlink.com 1.10,2013-05-18 07:02:00,
2013-05-18 02:17:00,47.6,45.0,30.05,NNW,342,0.0,2.0,92,0.00,,,0.00,0,weatherlink.com 1.10,2013-05-18 07:17:00,
2013-05-18 02:32:00,47.9,46.0,30.05,NNW,342,0.0,2.0,92,0.00,,,0.00,0,weatherlink.com 1.10,2013-05-18 07:32:00,
2013-05-18 02:47:00,48.3,46.0,30.05,NNW,339,0.0,3.0,92,0.00,,,0.00,0,weatherlink.com 1.10,2013-05-18 07:47:00,
2013-05-18 03:02:00,48.8,47.0,30.05,NNW,339,0.0,2.0,92,0.00,,,0.00,0,weatherlink.com 1.10,2013-05-18 08:02:00,
2013-05-18 03:17:00,49.0,47.0,30.05,NNW,339,0.0,1.0,91,0.00,,,0.00,0,weatherlink.com 1.10,2013-05-18 08:17:00,
2013-05-18 03:32:00,49.3,47.0,30.06,NNW,339,0.0,1.0,91,0.00,,,0.00,0,weatherlink.com 1.10,2013-05-18 08:32:00,
2013-05-18 03:47:00,49.2,47.0,30.06,NNW,339,0.0,2.0,91,0.00,,,0.00,0,weatherlink.com 1.10,2013-05-18 08:47:00,
2013-05-18 04:02:00,49.2,47.0,30.07,NNW,339,0.0,2.0,91,0.00,,,0.00,0,weatherlink.com 1.10,2013-05-18 09:02:00,
2013-05-18 04:17:00,49.4,47.0,30.06,NNW,339,0.0,2.0,90,0.00,,,0.00,0,weatherlink.com 1.10,2013-05-18 09:17:00,
2013-05-18 04:32:00,49.0,47.0,30.06,NNW,339,0.0,1.0,91,0.00,,,0.00,0,weatherlink.com 1.10,2013-05-18 09:32:00,
2013-05-18 04:47:00,48.9,46.0,30.05,NNW,339,0.0,1.0,90,0.00,,,0.00,0,weatherlink.com 1.10,2013-05-18 09:47:00,
2013-05-18 05:02:00,48.8,46.0,30.05,NNW,339,1.0,2.0,90,0.00,,,0.00,0,weatherlink.com 1.10,2013-05-18 10:02:00,
2013-05-18 05:17:00,48.6,46.0,30.06,NNW,339,0.0,1.0,90,0.00,,,0.00,0,weatherlink.com 1.10,2013-05-18 10:17:00,
2013-05-18 05:32:00,49.1,46.0,30.06,NNW,339,0.0,0.0,90,0.00,,,0.00,0,weatherlink.com 1.10,2013-05-18 10:32:00,
2013-05-18 05:47:00,49.7,47.0,30.06,NNW,339,0.0,0.0,89,0.00,,,0.00,9,weatherlink.com 1.10,2013-05-18 10:47:00,
2013-05-18 06:02:00,50.6,47.0,30.06,NNW,331,0.0,1.0,87,0.00,,,0.00,18,weatherlink.com 1.10,2013-05-18 11:02:00,
2013-05-18 06:17:00,51.2,47.0,30.07,NNW,331,0.0,1.0,85,0.00,,,0.00,28,weatherlink.com 1.10,2013-05-18 11:17:00,
2013-05-18 06:32:00,51.1,47.0,30.07,NNW,334,0.0,1.0,85,0.00,,,0.00,37,weatherlink.com 1.10,2013-05-18 11:32:00,
2013-05-18 06:47:00,51.1,46.0,30.07,South,169,1.0,3.0,84,0.00,,,0.00,63,weatherlink.com 1.10,2013-05-18 11:47:00,
2013-05-18 07:02:00,50.9,46.0,30.07,SE,142,0.0,2.0,84,0.00,,,0.00,86,weatherlink.com 1.10,2013-05-18 12:02:00,
2013-05-18 07:17:00,50.9,46.0,30.08,ENE,68,0.0,2.0,84,0.00,,,0.00,86,weatherlink.com 1.10,2013-05-18 12:17:00,
2013-05-18 07:32:00,50.9,46.0,30.07,ENE,59,0.0,2.0,84,0.00,,,0.00,127,weatherlink.com 1.10,2013-05-18 12:32:00,
2013-05-18 07:48:00,50.6,46.0,30.08,ENE,64,1.0,2.0,83,0.00,,,0.00,107,weatherlink.com 1.10,2013-05-18 12:48:00,
2013-05-18 08:03:00,50.9,46.0,30.08,NE,53,0.0,2.0,84,0.00,,,0.00,137,weatherlink.com 1.10,2013-05-18 13:03:00,
2013-05-18 08:18:00,52.4,47.0,30.07,South,187,0.0,4.0,82,0.00,,,0.00,176,weatherlink.com 1.10,2013-05-18 13:18:00,
2013-05-18 08:33:00,53.4,47.0,30.07,South,185,0.0,3.0,79,0.00,,,0.00,146,weatherlink.com 1.10,2013-05-18 13:33:00,
2013-05-18 08:48:00,53.8,47.0,30.07,South,183,2.0,3.0,77,0.00,,,0.00,167,weatherlink.com 1.10,2013-05-18 13:48:00,
2013-05-18 09:03:00,53.9,47.0,30.06,SSE,167,2.0,3.0,78,0.00,,,0.00,276,weatherlink.com 1.10,2013-05-18 14:03:00,
2013-05-18 09:18:00,55.0,47.0,30.07,South,174,0.0,6.0,75,0.00,,,0.00,255,weatherlink.com 1.10,2013-05-18 14:18:00,
2013-05-18 09:33:00,55.6,47.0,30.06,South,182,1.0,6.0,74,0.00,,,0.00,383,weatherlink.com 1.10,2013-05-18 14:33:00,
2013-05-18 09:48:00,56.6,48.0,30.06,South,184,1.0,9.0,72,0.00,,,0.00,645,weatherlink.com 1.10,2013-05-18 14:48:00,
2013-05-18 10:03:00,57.9,47.0,30.05,South,171,2.0,8.0,68,0.00,,,0.00,577,weatherlink.com 1.10,2013-05-18 15:03:00,
2013-05-18 10:18:00,58.7,49.0,30.05,SSE,167,1.0,7.0,69,0.00,,,0.00,601,weatherlink.com 1.10,2013-05-18 15:18:00,
2013-05-18 10:33:00,57.4,47.0,30.06,South,185,3.0,8.0,69,0.00,,,0.00,591,weatherlink.com 1.10,2013-05-18 15:33:00,
2013-05-18 10:48:00,58.9,48.0,30.06,South,178,2.0,4.0,68,0.00,,,0.00,807,weatherlink.com 1.10,2013-05-18 15:48:00,
2013-05-18 11:03:00,59.0,47.0,30.06,SSW,192,3.0,7.0,65,0.00,,,0.00,826,weatherlink.com 1.10,2013-05-18 16:03:00,
2013-05-18 11:18:00,59.1,48.0,30.06,South,189,3.0,3.0,67,0.00,,,0.00,802,weatherlink.com 1.10,2013-05-18 16:18:00,
2013-05-18 11:33:00,58.9,50.0,30.06,SSE,162,2.0,7.0,72,0.00,,,0.00,733,weatherlink.com 1.10,2013-05-18 16:33:00,
2013-05-18 11:48:00,60.3,48.0,30.05,East,82,0.0,3.0,65,0.00,,,0.00,875,weatherlink.com 1.10,2013-05-18 16:48:00,
2013-05-18 12:03:00,59.9,50.0,30.05,SSW,192,0.0,5.0,70,0.00,,,0.00,738,weatherlink.com 1.10,2013-05-18 17:03:00,
2013-05-18 12:18:00,59.3,49.0,30.05,SE,145,1.0,3.0,69,0.00,,,0.00,689,weatherlink.com 1.10,2013-05-18 17:18:00,
2013-05-18 12:33:00,58.8,50.0,30.05,South,187,0.0,3.0,72,0.00,,,0.00,838,weatherlink.com 1.10,2013-05-18 17:33:00,
2013-05-18 12:48:00,58.9,48.0,30.05,East,101,1.0,3.0,68,0.00,,,0.00,728,weatherlink.com 1.10,2013-05-18 17:48:00,
2013-05-18 13:03:00,59.2,48.0,30.04,ENE,59,1.0,3.0,67,0.00,,,0.00,842,weatherlink.com 1.10,2013-05-18 18:03:00,
2013-05-18 13:18:00,59.4,48.0,30.05,NE,53,1.0,5.0,66,0.00,,,0.00,856,weatherlink.com 1.10,2013-05-18 18:18:00,
2013-05-18 13:33:00,58.7,48.0,30.04,NE,52,1.0,4.0,67,0.00,,,0.00,835,weatherlink.com 1.10,2013-05-18 18:33:00,
2013-05-18 13:48:00,56.2,48.0,30.04,NE,35,3.0,5.0,75,0.00,,,0.00,821,weatherlink.com 1.10,2013-05-18 18:48:00,
2013-05-18 14:03:00,57.5,50.0,30.04,NE,50,3.0,3.0,76,0.00,,,0.00,779,weatherlink.com 1.10,2013-05-18 19:03:00,
2013-05-18 14:18:00,58.7,49.0,30.03,NE,38,1.0,3.0,70,0.00,,,0.00,782,weatherlink.com 1.10,2013-05-18 19:18:00,
2013-05-18 14:34:00,58.9,49.0,30.02,ENE,78,1.0,4.0,70,0.00,,,0.00,751,weatherlink.com 1.10,2013-05-18 19:34:00,
2013-05-18 14:48:00,59.7,50.0,30.01,NE,38,2.0,4.0,71,0.00,,,0.00,714,weatherlink.com 1.10,2013-05-18 19:48:00,
2013-05-18 15:03:00,59.3,50.0,30.01,NE,55,2.0,3.0,70,0.00,,,0.00,726,weatherlink.com 1.10,2013-05-18 20:03:00,
2013-05-18 15:18:00,59.1,49.0,30.01,North,5,1.0,3.0,69,0.00,,,0.00,679,weatherlink.com 1.10,2013-05-18 20:18:00,
2013-05-18 15:33:00,57.3,48.0,30.00,ENE,67,2.0,4.0,72,0.00,,,0.00,659,weatherlink.com 1.10,2013-05-18 20:33:00,
2013-05-18 15:48:00,57.8,49.0,30.00,ESE,109,1.0,4.0,72,0.00,,,0.00,615,weatherlink.com 1.10,2013-05-18 20:48:00,
2013-05-18 16:03:00,58.1,49.0,29.99,East,80,1.0,5.0,73,0.00,,,0.00,592,weatherlink.com 1.10,2013-05-18 21:03:00,
2013-05-18 16:19:00,58.9,49.0,29.98,South,175,0.0,3.0,71,0.00,,,0.00,557,weatherlink.com 1.10,2013-05-18 21:19:00,
2013-05-18 16:34:00,58.5,49.0,29.98,NE,38,1.0,4.0,70,0.00,,,0.00,519,weatherlink.com 1.10,2013-05-18 21:34:00,
2013-05-18 16:49:00,60.4,49.0,29.98,NE,49,0.0,3.0,66,0.00,,,0.00,485,weatherlink.com 1.10,2013-05-18 21:49:00,
2013-05-18 17:04:00,61.7,51.0,29.98,NNE,19,0.0,3.0,67,0.00,,,0.00,438,weatherlink.com 1.10,2013-05-18 22:04:00,
2013-05-18 17:19:00,61.5,49.0,29.98,NE,41,1.0,3.0,64,0.00,,,0.00,378,weatherlink.com 1.10,2013-05-18 22:19:00,
2013-05-18 17:34:00,60.9,50.0,29.98,NE,45,0.0,3.0,68,0.00,,,0.00,179,weatherlink.com 1.10,2013-05-18 22:34:00,
2013-05-18 20:18:00,52.9,48.0,29.97,NNE,19,0.0,2.0,82,0.00,,,0.00,0,weatherlink.com 1.10,2013-05-19 01:18:00,
2013-05-18 20:34:00,52.8,47.0,29.97,NNE,19,0.0,2.0,81,0.00,,,0.00,0,weatherlink.com 1.10,2013-05-19 01:34:00,
2013-05-18 20:49:00,52.2,47.0,29.97,NNE,19,0.0,2.0,82,0.00,,,0.00,0,weatherlink.com 1.10,2013-05-19 01:49:00,
2013-05-18 21:04:00,52.1,47.0,29.98,NNE,19,1.0,2.0,83,0.00,,,0.00,0,weatherlink.com 1.10,2013-05-19 02:04:00,
2013-05-18 21:19:00,52.1,47.0,29.97,NNE,18,0.0,1.0,83,0.00,,,0.00,0,weatherlink.com 1.10,2013-05-19 02:19:00,
2013-05-18 21:34:00,52.3,47.0,29.97,NNE,18,0.0,1.0,82,0.00,,,0.00,0,weatherlink.com 1.10,2013-05-19 02:34:00,
2013-05-18 21:49:00,52.3,47.0,29.97,NNE,18,1.0,3.0,82,0.00,,,0.00,0,weatherlink.com 1.10,2013-05-19 02:49:00,
2013-05-18 22:04:00,52.0,47.0,29.97,NNE,18,0.0,1.0,83,0.00,,,0.00,0,weatherlink.com 1.10,2013-05-19 03:04:00,
2013-05-18 22:19:00,52.2,47.0,29.97,NNE,18,0.0,1.0,83,0.00,,,0.00,0,weatherlink.com 1.10,2013-05-19 03:19:00,
2013-05-18 22:34:00,52.3,47.0,29.97,NNE,18,0.0,1.0,82,0.00,,,0.00,0,weatherlink.com 1.10,2013-05-19 03:34:00,
2013-05-18 22:49:00,52.2,48.0,29.96,NNE,18,0.0,0.0,84,0.00,,,0.00,0,weatherlink.com 1.10,2013-05-19 03:49:00,
2013-05-18 23:04:00,52.2,47.0,29.96,NNE,18,0.0,1.0,83,0.00,,,0.00,0,weatherlink.com 1.10,2013-05-19 04:04:00,
2013-05-18 23:19:00,51.8,47.0,29.96,NNE,18,0.0,2.0,84,0.00,,,0.00,0,weatherlink.com 1.10,2013-05-19 04:19:00,
2013-05-18 23:34:00,51.7,47.0,29.95,NNE,18,0.0,1.0,85,0.00,,,0.00,0,weatherlink.com 1.10,2013-05-19 04:34:00,
2013-05-18 23:49:00,51.7,47.0,29.95,NNE,18,0.0,1.0,84,0.00,,,0.00,0,weatherlink.com 1.10,2013-05-19 04:49:00,